Fort Wayne, IN

12:57 PM EST on November 22, 2019 (GMT -0500)
Fort Wayne International

Weather History for KFWA - September, 2019

Change the Weather History Date:

Monday, September 30, 2019

  Actual Average Record
Temperature  
Mean Temperature 77 °F 58 °F  
Max Temperature 89 °F 70 °F 89 °F (2019)
Min Temperature 64 °F 47 °F 31 °F (1993)
Degree Days  
Heating Degree Days 0 8  
Month to date heating degree days 17 104  
Since 1 July heating degree days 18 116  
Cooling Degree Days 12 1  
Month to date cooling degree days 134 83  
Year to date cooling degree days 972 800  
Growing Degree Days 26 (Base 50)    
Moisture  
Dew Point 66 °F    
Average Humidity 75    
Maximum Humidity 100    
Minimum Humidity 50    
Precipitation  
Precipitation 0.00 in 0.09 in 1.55 in (1906)
Month to date precipitation 2.59 2.80  
Year to date precipitation 30.86 29.64  
Sea Level Pressure  
Sea Level Pressure 30.10 in    
Wind  
Wind Speed 6 mph (ESE)    
Max Wind Speed 21 mph    
Max Gust Speed 29 mph    
Visibility 5 miles    
Events Fog    
T = Trace of Precipitation, MM = Missing Value Source: NWS Daily Summary

Daily Weather History Graph

Daily Weather History Graph

Search for Another Location

Airport or City:

Astronomy

Sep. 30, 2019 Rise Set
Actual Time 7:36 AM EDT 7:24 PM EDT
Civil Twilight 7:08 AM EDT 7:52 PM EDT
Nautical Twilight 6:36 AM EDT 8:23 PM EDT
Astronomical Twilight 6:04 AM EDT 8:56 PM EDT
Moon 9:39 AM EDT (9/30) 8:59 PM EDT (9/30)
Length of Visible Light 12h 43m
Length of Day
11h 48m
Waxing Crescent, 5% of the Moon is Illuminated
Sep 30
Waxing Crescent
Oct 5
First Quarter
Oct 13
Full
Oct 21
Last Quarter
Oct 27
New

Hourly Weather History & Observations

Time (EDT) Temp. Heat Index Dew Point Humidity Pressure Visibility Wind Dir Wind Speed Gust Speed Precip Events Conditions
12:54 AM 66.9 °F - 66.0 °F 97% 30.14 in 4.0 mi NE 5.8 mph - 0.00 in   Overcast
1:54 AM 66.0 °F - 64.9 °F 96% 30.14 in 3.0 mi ENE 6.9 mph - N/A   Overcast
2:54 AM 64.9 °F - 64.9 °F 100% 30.13 in 2.5 mi NE 4.6 mph - N/A   Overcast
3:42 AM 64.9 °F - 64.0 °F 97% 30.12 in 1.8 mi East 3.5 mph - N/A   Overcast
3:54 AM 64.9 °F - 64.0 °F 97% 30.12 in 1.2 mi East 3.5 mph - N/A   Overcast
4:42 AM 64.9 °F - 64.0 °F 97% 30.13 in 0.8 mi NNE 5.8 mph - N/A   Mist
4:54 AM 64.9 °F - 64.0 °F 97% 30.12 in 1.0 mi NE 5.8 mph - N/A   Mist
5:54 AM 64.0 °F - 64.0 °F 100% 30.12 in 1.2 mi East 6.9 mph - N/A   Overcast
6:24 AM 64.0 °F - 64.0 °F 100% 30.13 in 0.8 mi ESE 4.6 mph - N/A   Mist
6:44 AM 64.0 °F - 64.0 °F 100% 30.14 in 0.2 mi East 6.9 mph - N/A Fog Fog
6:54 AM 64.0 °F - 64.0 °F 100% 30.13 in 0.2 mi East 5.8 mph - N/A Fog Fog
7:54 AM 64.0 °F - 64.0 °F 100% 30.13 in 0.2 mi East 5.8 mph - N/A Fog Fog
8:54 AM 64.9 °F - 64.9 °F 100% 30.14 in 0.2 mi East 3.5 mph - N/A Fog Fog
9:10 AM 64.9 °F - 64.9 °F 100% 30.15 in 0.5 mi ESE 3.5 mph - N/A Fog Fog
9:22 AM 66.0 °F - 66.0 °F 100% 30.16 in 0.8 mi East 4.6 mph - N/A   Mist
9:31 AM 66.2 °F - 64.4 °F 94% 30.16 in 1.0 mi East 4.6 mph - N/A   Mist
9:54 AM 66.9 °F - 66.0 °F 97% 30.15 in 1.8 mi ENE 3.5 mph - N/A   Overcast
10:01 AM 66.9 °F - 66.9 °F 100% 30.16 in 3.0 mi Calm Calm - N/A   Overcast
10:25 AM 68.0 °F - 66.9 °F 96% 30.15 in 7.0 mi East 4.6 mph - N/A   Scattered Clouds
10:54 AM 71.1 °F - 68.0 °F 90% 30.14 in 10.0 mi Calm Calm - N/A   Partly Cloudy
11:54 AM 77.0 °F - 70.0 °F 79% 30.13 in 10.0 mi South 4.6 mph - N/A   Partly Cloudy
12:54 PM 82.9 °F 87.0 °F 70.0 °F 65% 30.10 in 10.0 mi Variable 4.6 mph - N/A   Partly Cloudy
1:54 PM 84.9 °F 88.2 °F 68.0 °F 57% 30.07 in 10.0 mi SW 12.7 mph - N/A   Mostly Cloudy
2:54 PM 84.9 °F 87.6 °F 66.9 °F 55% 30.05 in 10.0 mi WSW 13.8 mph 24.2 mph N/A   Scattered Clouds
3:54 PM 87.1 °F 89.9 °F 66.9 °F 51% 30.03 in 10.0 mi SW 13.8 mph 25.3 mph N/A   Mostly Cloudy
4:54 PM 87.1 °F 89.2 °F 66.0 °F 49% 30.02 in 10.0 mi WSW 11.5 mph 25.3 mph N/A   Mostly Cloudy
5:54 PM 84.9 °F 87.6 °F 66.9 °F 55% 30.01 in 10.0 mi SW 10.4 mph - N/A   Mostly Cloudy
6:54 PM 82.9 °F 85.8 °F 68.0 °F 60% 30.01 in 10.0 mi SW 6.9 mph - N/A   Mostly Cloudy
7:54 PM 77.0 °F - 68.0 °F 74% 30.02 in 10.0 mi SW 4.6 mph - N/A   Scattered Clouds
8:54 PM 73.9 °F - 66.9 °F 79% 30.03 in 10.0 mi Calm Calm - N/A   Mostly Cloudy
9:54 PM 72.0 °F - 66.0 °F 81% 30.02 in 10.0 mi SSW 5.8 mph - N/A   Mostly Cloudy
10:54 PM 72.0 °F - 66.0 °F 81% 30.01 in 10.0 mi SSW 6.9 mph - N/A   Scattered Clouds
11:54 PM 70.0 °F - 64.9 °F 84% 30.01 in 10.0 mi SSW 4.6 mph - N/A   Scattered Clouds